STARLINK-32646 (62307 NORAD) Tracking and Keplerian Element Data

This shows tracking and keplerian element data for the satellite.

Feedback or suggestion? Click here.




ElementValue
Catalog62307
NameSTARLINK-32646
Epoch Orbit829
Epoch Day35.13753792
Epoch Year2025
RAAN249.4289
Inclination53.1589
Eccentricity0.0001112
Argument of Perigee101.8843
Mean Anonmoly258.2286
Mean Motion15.39617379
Decay Rate7.717E-05
L11 62307U 24239G 25035.13753792 .00007717 00000+0 20273-3 0 9998
L22 62307 53.1589 249.4289 0001112 101.8843 258.2286 15.39617379 8292



Live tracking and technical data element details for STARLINK-32646 (NORAD 62307). STARLINK-32646 can be tracked NOW for your location showing map with azimuth and elevation plus other details from your city location.







IsCatalogInMostPopularTable: catalog: 62307, numindb: 17
Update: records affected: 1



GetName: 62307 STARLINK-32646

Hit Count: updated at: Mon, 19 May 2025 03:09:46 GMT